Regional Weather Roundup
Issued by NWS

Home | Current Version | Previous Version | Graphics & Text | Print | Product List | Glossary On
Versions: 1 2 3 4 5 6 7 8 9 10 11 12 13 14 15 16 17 18 19 20 21 22 23 24 25 26 27 28 29 30 31 32 33 34 35 36 37 38 39 40 41 42 43 44 45 46 47 48 49 50
000
ASUS45 KABQ 221510
RWRNM
NEW MEXICO REGIONAL WEATHER ROUNDUP
NATIONAL WEATHER SERVICE ALBUQUERQUE NM
900 AM MDT SUN OCT 22 2017

NOTE: "FAIR" MEANS FEW OR NO CLOUDS BELOW 12,000 FEET AGL WITH NO
       SIGNIFICANT WEATHER OR OBSTRUCTIONS TO VISION.

      THIS PRODUCT IS RELEASED AS TWO VERSIONS.  ONE VERSION NEAR
      THE TOP OF THE HOUR CONTAINING PRELIMINARY DATA FROM ALBUQUERQUE
      AND OTHER STATIONS.  A FINAL VERSION WITH ADDITIONAL DATA IS
      ISSUED ABOUT 10 MINUTES AFTER THE HOUR.

NMZ501-503-504-510>518-221600-
NORTHWEST PLATEAU/NORTHCENTRAL MOUNTAINS

CITY           SKY/WX    TMP DP  RH WIND       PRES   REMARKS
FARMINGTON     FAIR      37  10  32 SE7       30.43R WCI  32
LOS ALAMOS     FAIR      39   8  27 CALM      30.42R
SANTA FE       FAIR      44   8  23 N12       30.39R
TAOS           FAIR      36   8  31 VRB5      30.45R WCI  32
ANGEL FIRE     FAIR      36   7  30 CALM      30.42R

$$
NMZ402-403-502-505>509-221600-
WESTCENTRAL MOUNTAINS/SOUTHWEST MOUNTAINS

CITY           SKY/WX    TMP DP  RH WIND       PRES   REMARKS
GALLUP         FAIR      35  10  35 CALM      30.47R
GRANTS         FAIR      36  12  38 NW8       30.46S WCI  29
SILVER CITY    FAIR      55  16  21 SE5       30.38R

$$
NMZ407-409-411-412-221600-
SOUTHERN DESERTS

CITY           SKY/WX    TMP DP  RH WIND       PRES   REMARKS
DEMING         FAIR      56  20  24 E8        30.35R
LAS CRUCES     FAIR      55  21  26 SE3       30.36R
HOLLOMAN AFB   FAIR      52  24  34 N10       30.36R HAZE
ALAMOGORDO     FAIR      54  23  30 NW6       30.35R
T OR C         FAIR      52  18  26 SW3       30.37R

$$
NMZ519>523-221600-
CENTRAL VALLEYS/CENTRAL HIGHLANDS

CITY           SKY/WX    TMP DP  RH WIND       PRES   REMARKS
ALBUQUERQUE    FAIR      46   7  20 S3        30.42R
DOUBLE EAGLE   SUNNY     46   9  21 SW6       30.42R
MORIARTY ARPT  FAIR      45  12  27 CALM      30.40R
CLINES CORNERS FAIR      42   7  23 W9        30.39R
BELEN          FAIR      49   6  17 CALM      30.42R
SOCORRO        FAIR      48  13  24 N9        30.39R

$$
NMZ524>526-539-540-221600-
SOUTHCENTRAL MOUNTAINS

CITY           SKY/WX    TMP DP  RH WIND       PRES   REMARKS
RUIDOSO        FAIR      50   7  17 NW8       30.42R

$$
NMZ527>531-221600-
NORTHEAST HIGHLANDS/NORTHEAST PLAINS

CITY           SKY/WX    TMP DP  RH WIND       PRES   REMARKS
LAS VEGAS      FAIR      41  25  53 CALM      30.35R
RATON          FAIR      42  21  43 CALM      30.34R
CLAYTON        FAIR      46  20  35 SW7       30.32R

$$
NMZ532>537-221600-
EASTCENTRAL PLAINS

CITY           SKY/WX    TMP DP  RH WIND       PRES   REMARKS
SANTA ROSA     FAIR      43  25  48 CALM      30.32S
TUCUMCARI      FAIR      47  38  71 W3        30.32R
CANNON AFB     FAIR      51  33  50 SW3       30.35R
CLOVIS AIRPORT FAIR      51  36  56 CALM      30.34R

$$
NMZ028-029-538-221600-
SOUTHEAST PLAINS

CITY           SKY/WX    TMP DP  RH WIND       PRES   REMARKS
ROSWELL        FAIR      50  28  42 NE5       30.35R
ARTESIA        FAIR      52  30  43 NE5       30.36R
CARLSBAD       FAIR      54  37  52 CALM      30.35R
HOBBS          SUNNY     54  36  50 N7        30.35R


$$




USA.gov is the U.S. government's official web portal to all federal, state and local government web resources and services.